{"data":{"norad_id":52121,"intl_designator":"2022-029AK","name":"STARLINK-3678","alt_names":[],"object_type":"PAYLOAD","status":"ACTIVE","operator":null,"country":"US","launch_date":"2022-03-19","launch_site_code":"AFETR","launch_vehicle":null,"mission":null,"orbit_class":"UNKNOWN","rcs_meters":null,"size_class":null,"mass_kg":null,"dimensions":null,"purposes":["comms"],"wikipedia_slug":null,"has_3d_model":false,"image_url":null,"decayed_at":null,"tle_current":{"epoch":"2026-09-19T16:13:32.130912Z","epoch_age_seconds":126724,"freshness":"FRESH","line1":"1 52121U 22029AK  26262.67606633  .00000188  00000+0  16295-4 0  9994","line2":"2 52121  53.1598 271.5715 0001402  83.5192 276.5971 15.35408840250290","mean_motion":15.3540884,"eccentricity":0.0001402,"inclination_deg":53.1598,"raan_deg":271.5715,"arg_perigee_deg":83.5192,"mean_anomaly_deg":276.5971,"bstar":1.6295e-5,"rev_number":25029,"period_min":93.786095435011,"perigee_km":458.74773139424,"apogee_km":460.66506268277,"semimajor_km":6837.8433970385,"source":"CELESTRAK","updated_at":"2026-09-20T09:00:39.989898Z"}}}